CAPE
1014 841 334 11 0 0 1 3 4 2 0 0 0 0 0 0 0 0 10 0 17 5 5 14 18 4 8 2 0 7 1 4 5
949 489 52 0 0 0 1 2 3 0 0 0 0 0 0 0 0 0 5 1 29 5 4 4 2 5 6 7 3 1 2 3 2
837 473 67 0 0 0 0 0 0 0 0 0 0 0 0 0 0 0 0 0 23 12 3 1 2 2 4 3 1 0 2 2 5
744 491 121 1 4 0 0 0 0 0 0 0 0 0 0 0 0 0 0 0 10 16 8 1 2 2 3 4 2 2 2 2 4
713 510 229 84 28 3 0 0 0 0 0 0 0 0 0 0 0 0 0 0 6 8 1 6 3 3 1 2 1 0 0 0 0
692 576 312 267 166 26 0 0 0 0 0 0 0 0 0 0 0 0 0 0 5 5 4 3 2 1 0 0 0 0 0 0 0
624 551 393 362 350 161 11 0 0 0 0 0 0 0 0 0 0 0 0 0 7 7 4 1 0 0 0 0 0 0 0 0 0
603 488 370 333 420 299 135 3 0 0 0 0 0 0 0 0 0 0 0 0 6 6 1 0 0 0 0 0 0 0 0 0 0
472 472 364 283 296 320 202 43 0 0 0 0 0 0 0 0 0 0 0 0 0 8 5 2 0 0 0 0 0 0 0 0 0
355 348 247 313 224 303 202 122 8 0 0 0 0 0 0 0 0 0 0 0 0 1 10 7 3 0 0 0 0 0 0 0 0
319 368 272 248 222 226 185 126 38 0 0 0 0 0 0 0 0 0 0 0 0 0 1 7 7 5 4 6 5 5 3 1 1
11 315 437 366 227 170 123 142 30 0 0 0 0 0 0 0 0 0 0 0 0 0 0 0 3 9 8 9 4 7 8 10 23
0 0 132 448 381 252 106 119 39 20 16 2 0 0 0 0 0 0 0 0 0 0 0 0 0 8 3 6 5 5 11 9 16
0 0 0 2 415 379 248 89 82 33 21 2 0 0 0 0 0 0 0 0 0 0 0 0 0 0 0 0 6 5 5 5 6
0 0 0 0 0 243 287 247 54 57 32 7 1 0 0 0 0 0 0 0 0 0 0 0 0 0 0 0 0 0 13 9 1
0 0 0 0 0 0 226 224 184 51 10 4 1 0 0 0 0 0 0 0 0 0 0 0 0 0 0 0 0 0 0 5 55
0 0 0 0 0 0 0 90 158 98 23 67 20 2 0 0 0 0 0 0 0 0 0 0 0 0 0 0 0 0 0 0 26
0 0 0 0 0 0 0 0 42 129 51 15 83 13 1 0 0 0 0 0 0 0 0 0 0 0 0 0 0 0 0 0 0
0 0 0 0 0 0 0 0 0 5 70 0 16 45 0 2 0 0 0 0 0 0 0 0 0 0 0 0 0 0 0 0 0
0 0 0 0 0 0 0 0 0 0 6 0 0 4 5 0 0 0 0 0 0 0 0 0 0 0 0 0 0 0 0 0 0
CIN
0 0 -23 -178 0 0 0 0 0 0 0 0 0 0 0 0 0 0 -3 0 0 -1 -1 -1 -3 0 -1 0 0 0 0 -1 0
-8 -22 -94 0 0 0 0 0 0 0 0 0 0 0 0 0 0 0 -12 0 -40 -1 0 0 -2 -1 0 0 -1 0 0 -1 -1
-7 -22 -84 0 0 0 0 0 0 0 0 0 0 0 0 0 0 0 0 0 -76 -2 0 0 0 0 0 -1 0 0 0 0 0
-4 -15 -72 -21 -149 0 0 0 0 0 0 0 0 0 0 0 0 0 0 0 0 0 0 0 0 0 0 0 0 0 0 0 0
-2 -9 -45 -58 -72 -90 0 0 0 0 0 0 0 0 0 0 0 0 0 0 0 0 0 0 0 0 0 0 0 0 0 0 0
-3 -4 -29 -29 -31 -86 0 0 0 0 0 0 0 0 0 0 0 0 0 0 0 0 0 0 0 0 0 0 0 0 0 0 0
-6 -9 -18 -12 -10 -31 -80 0 0 0 0 0 0 0 0 0 0 0 0 0 0 0 0 0 0 0 0 0 0 0 0 0 0
-3 -10 -25 -16 -5 -19 -38 -107 0 0 0 0 0 0 0 0 0 0 0 0 0 0 0 0 0 0 0 0 0 0 0 0 0
-8 -5 -10 -24 -17 -12 -36 -80 0 0 0 0 0 0 0 0 0 0 0 0 0 0 0 0 0 0 0 0 0 0 0 0 0
-3 -8 -23 -7 -17 -11 -34 -42 -101 0 0 0 0 0 0 0 0 0 0 0 0 0 0 0 0 0 0 0 0 0 0 0 0
-11 -2 -6 -14 -22 -12 -24 -48 -77 0 0 0 0 0 0 0 0 0 0 0 0 0 0 0 0 0 0 0 0 0 0 0 0
-3 -5 -5 -6 -17 -25 -22 -15 -60 0 0 0 0 0 0 0 0 0 0 0 0 0 0 0 0 -101 0 0 -2 -2 -2 -4 -1
0 0 -9 -2 -2 -13 -33 -21 -36 -69 -120 -159 0 0 0 0 0 0 0 0 0 0 0 0 0 -52 -4 0 0 -1 -1 -2 -3
0 0 0 0 0 -2 -19 -46 -27 -40 -95 -70 0 0 0 0 0 0 0 0 0 0 0 0 0 0 0 0 0 0 0 -1 -3
0 0 0 0 0 -1 -6 -21 -63 -47 -61 -114 -19 0 0 0 0 0 0 0 0 0 0 0 0 0 0 0 0 0 -7 -3 -1
0 0 0 0 0 0 -4 -3 -7 -43 -105 -119 0 0 0 0 0 0 0 0 0 0 0 0 0 0 0 0 0 0 0 -1 -5
0 0 0 0 0 0 0 -7 -32 -13 -76 -29 -63 -35 -32 0 0 0 0 0 0 0 0 0 0 0 0 0 0 0 0 0 -2
0 0 0 0 0 0 0 0 -1 -16 -24 -92 -6 -6 -21 0 0 0 0 0 0 0 0 0 0 0 0 0 0 0 0 0 0
0 0 0 0 0 0 0 0 0 -4 0 0 -44 -33 -20 -27 0 0 0 0 0 0 0 0 0 0 0 0 0 0 0 0 0
0 0 0 0 0 0 0 0 0 0 -1 0 -1 -50 -15 0 0 -5 0 0 0 0 0 0 0 0 0 0 0 0 0 0 0
Wind_Speed
13 12 13 14 15 15 16 16 15 15 15 15 15 14 14 14 15 15 16 17 18 20 20 21 22 22 23 24 24 26 27 27 27
11 11 12 13 13 14 14 14 14 14 14 14 14 12 12 12 13 14 15 16 16 18 19 19 20 21 21 22 23 24 25 26 26
10 10 11 11 12 13 13 13 13 13 13 14 14 11 11 12 12 12 12 13 15 16 17 18 18 19 19 20 21 22 23 24 25
9 9 10 10 11 12 12 12 12 12 13 14 14 11 11 12 11 11 12 12 12 14 15 16 16 17 18 18 19 20 21 22 23
8 8 8 9 10 11 11 11 12 12 12 13 14 12 11 11 11 11 11 11 11 12 13 14 15 15 16 16 17 18 19 20 21
10 8 8 7 7 8 9 8 9 11 13 13 13 13 12 11 11 11 11 10 11 11 12 12 13 14 14 15 15 16 17 17 18
11 9 9 8 7 9 9 9 7 10 13 14 14 13 13 10 11 11 11 11 11 11 12 12 12 12 13 13 13 14 14 15 16
15 14 14 13 10 12 10 10 7 4 11 14 14 15 13 12 12 10 9 10 10 10 11 11 12 12 12 12 12 12 12 12 13
19 18 17 15 14 14 14 11 8 6 3 10 14 15 15 15 15 11 8 8 8 9 10 11 11 11 11 10 10 11 11 11 11
23 21 21 19 18 16 16 15 11 9 10 7 16 17 17 16 16 15 10 8 8 9 9 10 10 11 11 10 9 9 9 9 9
23 25 24 23 21 19 19 18 17 13 9 6 10 21 19 18 17 16 16 11 9 8 8 9 10 10 11 10 10 10 9 7 7
30 28 25 24 24 24 23 21 20 18 15 12 8 18 21 20 18 18 19 18 12 9 11 11 11 11 11 11 11 10 8 6 8
34 33 34 28 25 25 26 25 24 22 21 20 19 14 18 19 22 22 20 17 16 13 11 12 12 13 12 12 13 13 12 11 13
35 35 35 35 31 27 26 26 25 27 26 26 25 23 18 17 23 23 20 18 16 15 13 10 10 11 12 13 14 14 14 15 15
37 37 36 35 36 35 30 28 27 28 28 28 27 27 25 23 20 29 25 20 17 16 14 14 11 9 8 9 10 10 10 13 15
39 39 39 37 38 38 36 33 31 30 28 30 30 30 28 27 24 22 25 21 23 20 19 18 16 14 11 11 10 10 10 12 12
40 40 40 39 39 39 39 38 35 34 29 32 33 35 31 29 27 26 25 25 25 24 22 21 20 20 19 17 13 12 12 12 12
42 42 41 41 40 40 39 39 38 37 33 30 32 33 35 33 30 30 30 28 27 26 25 24 24 24 23 22 19 17 16 16 16
42 42 42 42 42 42 41 39 39 39 41 33 33 35 35 37 40 32 31 31 31 31 30 28 28 26 26 25 23 22 21 20 19
43 43 42 42 41 42 42 41 41 39 40 40 36 34 36 38 40 45 37 33 33 32 32 32 29 27 27 27 26 24 24 23 22
Wind_Direction
22 30 32 32 37 34 43 51 50 42 32 19 13 37 39 37 34 33 40 40 49 44 49 49 50 51 50 51 54 53 54 52 50
23 16 11 16 20 26 36 37 40 41 30 15 15 35 32 33 27 26 29 34 50 48 47 46 46 47 48 51 51 52 51 50 49
9 4 4 7 8 12 18 25 25 21 19 11 8 33 32 20 19 20 21 29 33 39 43 45 47 49 48 48 48 47 46 49 46
3 358 358 2 6 7 6 5 13 18 7 360 2 22 15 12 16 18 17 21 33 29 36 43 46 46 48 47 47 45 45 43 44
355 358 356 355 354 358 5 6 356 353 357 357 352 355 4 2 2 1 5 16 21 24 26 34 38 40 44 47 47 47 44 44 43
334 339 344 353 358 2 1 20 14 349 336 340 346 343 344 351 353 347 351 357 359 6 13 20 29 33 37 43 46 45 44 44 43
321 321 323 329 338 335 346 353 12 347 327 323 327 334 338 343 342 344 344 343 343 348 355 4 14 22 29 39 44 45 46 47 46
309 309 309 311 316 315 325 332 349 41 333 319 318 318 327 332 335 342 348 347 346 346 349 351 356 7 18 27 37 42 43 44 44
300 299 300 302 304 305 308 314 326 335 358 329 312 309 311 315 321 333 341 348 346 343 342 341 346 353 6 19 28 33 34 34 44
294 295 295 294 296 298 301 302 306 314 322 325 306 302 302 305 310 315 322 329 334 335 336 339 344 345 352 4 12 18 24 28 37
294 291 290 291 290 290 293 295 294 297 304 304 306 297 297 299 302 307 311 311 316 323 328 330 333 336 339 347 354 359 6 17 22
289 289 289 288 288 288 287 289 291 291 293 293 294 298 296 296 298 299 302 305 303 305 313 317 321 324 329 334 338 343 351 1 357
287 286 285 287 287 285 285 285 285 286 287 290 293 295 296 295 292 294 297 301 302 299 297 304 309 314 317 321 325 329 335 340 344
286 285 284 283 284 284 284 283 282 284 285 286 288 291 291 292 290 291 293 294 297 296 294 285 290 301 307 311 316 320 324 328 332
284 283 282 282 281 281 281 282 282 283 284 287 286 287 288 290 290 285 289 292 290 291 290 295 290 269 273 290 302 308 314 321 323
285 282 280 279 278 278 279 279 280 281 284 288 287 285 285 285 287 288 288 289 290 290 289 292 294 294 282 283 284 290 299 309 315
283 282 280 278 277 276 276 276 278 279 279 283 287 289 288 282 282 284 285 285 286 287 286 287 289 292 294 293 284 284 289 297 304
281 280 279 278 276 275 274 275 275 277 278 275 280 285 285 290 289 283 281 284 284 284 284 284 286 287 290 291 290 285 288 292 297
282 279 277 277 275 274 273 274 274 274 276 279 274 278 285 285 285 289 287 286 285 287 286 286 286 286 287 288 287 287 287 289 292
281 278 276 276 275 274 273 272 272 272 274 274 282 278 280 281 282 282 285 290 286 286 287 288 290 290 289 289 287 284 284 286 290